Tracking 29892 objects as of 21-Nov-2024
HD Live streaming from Space Station
objects crossing your sky now

DIAMANT R/B

Track DIAMANT R/B now!
10-day predictions


NORAD ID: 1805
Int'l Code: 1965-096B
Perigee: 518.2 km
Apogee: 1,391.1 km
Inclination: 34.2 °
Period: 104.0 minutes
Semi major axis: 7325 km
RCS: 1.079 m2 (large)
Launch date: November 26, 1965
Source: France (FR)
Launch site: HAMMA GUIRA SPACE TRACK RANGE (HGSTR)

Note: This is a ROCKET BODY
Your satellite tracking list
Your tracking list is empty




NASA's NSSDC Master Catalog

Two Line Element Set (TLE):
1 01805U 65096B   24325.69118023  .00002534  00000-0  54015-3 0  9998
2 01805  34.2465  62.5697 0595825 103.3804 263.3950 13.84634485925064
Source of the keplerian elements: AFSPC